TimeEST,TemperatureF,Dew PointF,Humidity,Sea Level PressureIn,VisibilityMPH,Wind Direction,Wind SpeedMPH,Gust SpeedMPH,PrecipitationIn,Events,Conditions,WindDirDegrees,DateUTC
12:53 AM,30.9,24.1,76,30.15,10.0,Calm,Calm,-,N/A,,Clear,0,2012-11-21 05:53:00
1:53 AM,30.9,24.1,76,30.15,10.0,Calm,Calm,-,N/A,,Clear,0,2012-11-21 06:53:00
5:53 AM,26.1,19.9,78,30.20,10.0,Calm,Calm,-,N/A,,Clear,0,2012-11-21 10:53:00
6:53 AM,25.0,21.0,85,30.22,10.0,Calm,Calm,-,N/A,,Clear,0,2012-11-21 11:53:00
7:53 AM,33.1,26.1,75,30.22,10.0,NE,3.5,-,N/A,,Clear,50,2012-11-21 12:53:00
8:53 AM,42.1,25.0,51,30.22,10.0,Calm,Calm,-,N/A,,Clear,0,2012-11-21 13:53:00
9:53 AM,45.0,24.1,44,30.23,10.0,NE,5.8,-,N/A,,Clear,40,2012-11-21 14:53:00
10:53 AM,46.0,21.9,39,30.22,10.0,North,5.8,-,N/A,,Clear,360,2012-11-21 15:53:00
11:53 AM,50.0,21.0,32,30.19,10.0,North,5.8,-,N/A,,Clear,350,2012-11-21 16:53:00
12:53 PM,51.1,21.0,31,30.19,10.0,NE,3.5,-,N/A,,Clear,50,2012-11-21 17:53:00
1:53 PM,51.1,21.9,32,30.18,10.0,Variable,3.5,-,N/A,,Clear,0,2012-11-21 18:53:00
2:53 PM,50.0,23.0,35,30.19,10.0,East,6.9,-,N/A,,Clear,80,2012-11-21 19:53:00
3:53 PM,48.9,23.0,36,30.20,10.0,NE,5.8,-,N/A,,Clear,40,2012-11-21 20:53:00
4:53 PM,44.1,21.9,42,30.22,10.0,Calm,Calm,-,N/A,,Clear,0,2012-11-21 21:53:00
5:53 PM,36.0,23.0,59,30.25,10.0,Calm,Calm,-,N/A,,Clear,0,2012-11-21 22:53:00
6:53 PM,32.0,23.0,69,30.26,10.0,Calm,Calm,-,N/A,,Clear,0,2012-11-21 23:53:00
7:53 PM,30.0,21.9,72,30.27,10.0,Calm,Calm,-,N/A,,Clear,0,2012-11-22 00:53:00
8:53 PM,28.9,23.0,78,30.25,10.0,Calm,Calm,-,N/A,,Clear,0,2012-11-22 01:53:00
9:53 PM,27.0,21.9,81,30.26,10.0,Calm,Calm,-,N/A,,Clear,0,2012-11-22 02:53:00
10:53 PM,27.0,21.9,81,30.25,10.0,Calm,Calm,-,N/A,,Clear,0,2012-11-22 03:53:00
11:53 PM,27.0,21.9,81,30.25,10.0,Calm,Calm,-,N/A,,Clear,0,2012-11-22 04:53:00